This is the latest recevied weather packets stored in our database for station/object SP3PDK-1. If no packets are shown the sender has not sent any weather packets the latest 10 day(s).
| Time | Temp. | Humidity | Pressure | Rain* | Wind** | Luminosity | Snow |
|---|---|---|---|---|---|---|---|
| 1777902258 | 27.78° C | 29% | 1010.3 hPa | - | - | - | - |
| 1777901657 | 28.33° C | 29% | 1010.5 hPa | - | - | - | - |
| 1777901054 | 28.89° C | 29% | 1010.5 hPa | - | - | - | - |
| 1777900455 | 27.78° C | 29% | 1010.5 hPa | - | - | - | - |
| 1777899854 | 28.33° C | 29% | 1010.7 hPa | - | - | - | - |
| 1777898657 | 28.33° C | 29% | 1010.8 hPa | - | - | - | - |
| 1777898056 | 27.78° C | 29% | 1010.8 hPa | - | - | - | - |
| 1777897454 | 27.22° C | 29% | 1010.8 hPa | - | - | - | - |
| 1777896853 | 28.33° C | 28% | 1010.9 hPa | - | - | - | - |
| 1777896254 | 27.78° C | 29% | 1011.1 hPa | - | - | - | - |
| 1777895658 | 27.22° C | 31% | 1011.3 hPa | - | - | - | - |
| 1777895054 | 26.67° C | 31% | 1011.4 hPa | - | - | - | - |
| 1777894459 | 26.67° C | 31% | 1011.5 hPa | - | - | - | - |
| 1777893855 | 26.11° C | 31% | 1011.6 hPa | - | - | - | - |
| 1777893253 | 26.67° C | 31% | 1011.5 hPa | - | - | - | - |
| 1777892654 | 26.11° C | 32% | 1011.6 hPa | - | - | - | - |
| 1777892054 | 26.11° C | 31% | 1011.6 hPa | - | - | - | - |
| 1777891455 | 26.11° C | 31% | 1011.8 hPa | - | - | - | - |
| 1777890854 | 26.11° C | 32% | 1011.9 hPa | - | - | - | - |
| 1777890258 | 26.11° C | 32% | 1012 hPa | - | - | - | - |
| 1777889058 | 26.11° C | 34% | 1012.4 hPa | - | - | - | - |
| 1777888459 | 25.56° C | 34% | 1012.5 hPa | - | - | - | - |
| 1777887254 | 26.11° C | 34% | 1012.4 hPa | - | - | - | - |
| 1777886654 | 25.56° C | 34% | 1012.5 hPa | - | - | - | - |
| 1777886054 | 24.44° C | 36% | 1012.4 hPa | - | - | - | - |
* Rain since midnight (hover to see other rain measurements)
** Current wind speed in m/s (hover to see current wind gust speed)